Location: Unspecified
(0.0000°N, 0.0000°E)
Time: 03:43:51
(UTC+00:00)

N. Korean satellite - Pass Details

Date: 15 January 2017
Orbit: 463 x 519 km, 97.2° (Epoch: 18 January)

Event Time Altitude Azimuth Distance (km) Brightness Sun altitude
Rises 18:56:24 0° 174° (S) 2,494 10.4 -10.9°
Reaches altitude 10° 18:58:27 10° 178° (S) 1,614 9.5 -11.4°
Maximum altitude 19:01:52 62° 258° (WSW) 523 7.0 -12.2°
Drops below altitude 10° 19:05:17 10° 341° (NNW) 1,606 9.2 -13.0°
Sets 19:07:20 0° 344° (NNW) 2,481 10.1 -13.5°
